Location: Wanzleben
(52.0609°N, 11.4408°E)
Time: 11:08:19
(UTC+00:00)

CSL-04 Rocket - Pass Details

Date: 18 September 2020
Orbit: 806 x 860 km, 98.9° (Epoch: 30 October)

Event Time Altitude Azimuth Distance (km) Brightness Sun altitude
Rises 18:26:50 0° 176° (S) 3,359 6.6 -10.8°
Reaches altitude 10° 18:29:13 10° 181° (S) 2,438 5.9 -11.1°
Maximum altitude 18:34:31 55° 259° (W) 1,010 4.5 -11.9°
Drops below altitude 10° 18:39:56 10° 337° (NNW) 2,489 6.8 -12.7°
Sets 18:42:24 0° 342° (NNW) 3,436 7.4 -13.0°
